BTK124 WIBB-WIII

Flight info

Callsign BTK124
Flight time 1h 31m
Altitude 35000
Route ISROR1H ISROR T5 BUNIK BUNIK2F
Aircraft B738/M-SDE2E3FGHIRWXY/LB1

Departure

Time 2026-05-09 03:58
Airport Sultan Syarif Kasim II International Airport / Roesmin Nurjadin AFB (WIBB)

Arrival

Time 2026-05-09 05:29
Airport Soekarno-Hatta International Airport (WIII)
Time Latitude Longitude Altitude Speed Heading
2026-05-09 03:45 0.46441 101.44678 127 ft 0 kts 91°
2026-05-09 03:47 0.46442 101.44661 140 ft 4 kts 94°
2026-05-09 03:48 0.46445 101.44635 126 ft 4 kts 102°
2026-05-09 03:48 0.46453 101.44609 123 ft 4 kts 119°
2026-05-09 03:48 0.46469 101.44592 122 ft 4 kts 169°
2026-05-09 03:48 0.46474 101.44591 122 ft 0 kts 182°
2026-05-09 03:51 0.46464 101.44591 122 ft 2 kts 182°
2026-05-09 03:51 0.46450 101.44590 124 ft 2 kts 182°
2026-05-09 03:52 0.46427 101.44590 125 ft 4 kts 181°
2026-05-09 03:52 0.46395 101.44586 127 ft 2 kts 205°
2026-05-09 03:52 0.46385 101.44569 125 ft 4 kts 251°
2026-05-09 03:52 0.46382 101.44540 126 ft 5 kts 268°
2026-05-09 03:53 0.46382 101.44503 124 ft 6 kts 271°
2026-05-09 03:53 0.46369 101.44465 127 ft 5 kts 224°
2026-05-09 03:53 0.46338 101.44458 128 ft 5 kts 180°
2026-05-09 03:53 0.46284 101.44458 127 ft 12 kts 180°
2026-05-09 03:54 0.46172 101.44454 126 ft 20 kts 181°
2026-05-09 03:54 0.45989 101.44450 125 ft 32 kts 181°
2026-05-09 03:54 0.45740 101.44440 121 ft 37 kts 181°
2026-05-09 03:54 0.45489 101.44435 125 ft 34 kts 182°
2026-05-09 03:55 0.45262 101.44427 127 ft 31 kts 181°
2026-05-09 03:55 0.45056 101.44423 128 ft 29 kts 182°
2026-05-09 03:55 0.44892 101.44417 128 ft 21 kts 181°
2026-05-09 03:55 0.44790 101.44451 127 ft 10 kts 172°
2026-05-09 03:56 0.44776 101.44447 128 ft 0 kts 233°
2026-05-09 03:56 0.44777 101.44442 124 ft 1 kts 269°
2026-05-09 03:56 0.44780 101.44434 126 ft 1 kts 292°
2026-05-09 03:56 0.44787 101.44424 127 ft 2 kts 310°
2026-05-09 03:57 0.44803 101.44418 126 ft 3 kts 344°
2026-05-09 03:57 0.44822 101.44415 127 ft 3 kts 358°
2026-05-09 03:57 0.44842 101.44415 128 ft 3 kts
2026-05-09 03:57 0.44883 101.44416 128 ft 11 kts
2026-05-09 03:58 0.45055 101.44421 128 ft 54 kts
2026-05-09 03:58 0.45687 101.44439 121 ft 125 kts
2026-05-09 03:58 0.46740 101.44471 210 ft 174 kts
2026-05-09 03:58 0.47943 101.44520 963 ft 168 kts
2026-05-09 03:59 0.49096 101.44612 1728 ft 167 kts
2026-05-09 03:59 0.50170 101.45111 2215 ft 179 kts 54°
2026-05-09 03:59 0.50588 101.46274 2885 ft 180 kts 77°
2026-05-09 03:59 0.50892 101.47503 3569 ft 184 kts 76°
2026-05-09 04:00 0.51225 101.48749 4276 ft 187 kts 75°
2026-05-09 04:00 0.51574 101.50014 4925 ft 195 kts 74°
2026-05-09 04:00 0.51963 101.51389 5159 ft 220 kts 73°
2026-05-09 04:00 0.52409 101.52936 5359 ft 243 kts 73°
2026-05-09 04:01 0.52899 101.54603 5738 ft 254 kts 73°
2026-05-09 04:01 0.53133 101.56356 6222 ft 260 kts 99°
2026-05-09 04:01 0.52337 101.57962 6791 ft 262 kts 134°
2026-05-09 04:01 0.50879 101.59064 7331 ft 265 kts 149°
2026-05-09 04:02 0.49256 101.59982 7834 ft 269 kts 151°
2026-05-09 04:02 0.47578 101.60887 8238 ft 283 kts 151°
2026-05-09 04:02 0.45830 101.61834 8701 ft 294 kts 151°
2026-05-09 04:02 0.44023 101.62824 9378 ft 298 kts 151°
2026-05-09 04:03 0.42203 101.63831 10063 ft 301 kts 150°
2026-05-09 04:03 0.40342 101.64869 10433 ft 316 kts 150°
2026-05-09 04:03 0.38352 101.65984 10570 ft 338 kts 150°
2026-05-09 04:03 0.36247 101.67167 10818 ft 353 kts 150°
2026-05-09 04:04 0.34081 101.68384 11309 ft 359 kts 150°
2026-05-09 04:04 0.31897 101.69612 11974 ft 359 kts 150°
2026-05-09 04:04 0.29706 101.70817 12628 ft 361 kts 152°
2026-05-09 04:04 0.27480 101.71937 13239 ft 364 kts 153°
2026-05-09 04:05 0.25190 101.73049 13846 ft 368 kts 153°
2026-05-09 04:05 0.23629 101.73804 14217 ft 370 kts 153°
2026-05-09 04:05 0.20548 101.75307 14962 ft 374 kts 153°
2026-05-09 04:05 0.18203 101.76461 15533 ft 377 kts 153°
2026-05-09 04:06 0.16638 101.77234 15909 ft 379 kts 153°
2026-05-09 04:06 0.14259 101.78412 16475 ft 382 kts 152°
2026-05-09 04:06 0.11320 101.80364 17187 ft 384 kts 139°
2026-05-09 04:06 0.09428 101.82265 17725 ft 386 kts 130°
2026-05-09 04:07 0.08255 101.83617 18089 ft 388 kts 129°
2026-05-09 04:07 0.06499 101.85690 18540 ft 391 kts 129°
2026-05-09 04:07 0.04738 101.87775 18993 ft 394 kts 129°
2026-05-09 04:07 0.02948 101.89876 19449 ft 396 kts 130°
2026-05-09 04:08 0.01147 101.91971 19893 ft 399 kts 130°
2026-05-09 04:08 -0.00673 101.94075 20326 ft 402 kts 130°
2026-05-09 04:08 -0.02493 101.96176 20753 ft 404 kts 130°
2026-05-09 04:08 -0.04346 101.98312 21168 ft 407 kts 130°
2026-05-09 04:09 -0.06206 102.00457 21582 ft 409 kts 130°
2026-05-09 04:09 -0.08084 102.02624 22002 ft 412 kts 130°
2026-05-09 04:09 -0.09942 102.04768 22408 ft 414 kts 130°
2026-05-09 04:09 -0.11836 102.06953 22777 ft 417 kts 130°
2026-05-09 04:10 -0.13744 102.09154 23147 ft 419 kts 130°
2026-05-09 04:10 -0.15660 102.11366 23521 ft 422 kts 130°
2026-05-09 04:10 -0.17592 102.13595 23816 ft 424 kts 130°
2026-05-09 04:10 -0.19531 102.15834 24120 ft 426 kts 130°
2026-05-09 04:11 -0.21476 102.18079 24405 ft 428 kts 130°
2026-05-09 04:11 -0.23412 102.20312 24699 ft 431 kts 130°
2026-05-09 04:11 -0.25385 102.22585 24990 ft 433 kts 130°
2026-05-09 04:11 -0.27365 102.24863 25276 ft 435 kts 130°
2026-05-09 04:12 -0.29350 102.27146 25554 ft 437 kts 130°
2026-05-09 04:12 -0.31349 102.29449 25828 ft 439 kts 129°
2026-05-09 04:12 -0.33184 102.31888 26081 ft 440 kts 121°
2026-05-09 04:12 -0.34673 102.34561 26344 ft 441 kts 117°
2026-05-09 04:13 -0.36097 102.37292 26626 ft 443 kts 116°
2026-05-09 04:13 -0.37519 102.40036 26884 ft 445 kts 116°
2026-05-09 04:13 -0.38946 102.42759 27129 ft 447 kts 117°
2026-05-09 04:13 -0.40403 102.45505 27391 ft 449 kts 117°
2026-05-09 04:14 -0.41885 102.48272 27652 ft 451 kts 117°
2026-05-09 04:14 -0.43372 102.51043 27884 ft 453 kts 117°
2026-05-09 04:14 -0.44866 102.53828 28123 ft 455 kts 117°
2026-05-09 04:14 -0.46368 102.56619 28371 ft 456 kts 117°
2026-05-09 04:15 -0.47873 102.59413 28607 ft 458 kts 117°
2026-05-09 04:15 -0.49388 102.62224 28840 ft 459 kts 117°
2026-05-09 04:15 -0.50903 102.65037 29079 ft 460 kts 117°
2026-05-09 04:15 -0.52406 102.67828 29294 ft 462 kts 117°
2026-05-09 04:16 -0.53940 102.70677 29524 ft 463 kts 117°
2026-05-09 04:16 -0.55473 102.73524 29755 ft 464 kts 117°
2026-05-09 04:16 -0.56998 102.76357 30044 ft 463 kts 117°
2026-05-09 04:16 -0.58504 102.79156 30349 ft 461 kts 117°
2026-05-09 04:17 -0.60022 102.81974 30686 ft 459 kts 117°
2026-05-09 04:17 -0.61534 102.84783 30957 ft 458 kts 117°
2026-05-09 04:17 -0.63047 102.87595 31207 ft 458 kts 117°
2026-05-09 04:17 -0.64554 102.90396 31504 ft 457 kts 116°
2026-05-09 04:18 -0.66042 102.93161 31807 ft 455 kts 116°
2026-05-09 04:18 -0.67538 102.95939 32102 ft 454 kts 116°
2026-05-09 04:18 -0.69037 102.98725 32371 ft 453 kts 116°
2026-05-09 04:18 -0.70527 103.01495 32654 ft 453 kts 116°
2026-05-09 04:19 -0.72014 103.04259 32959 ft 451 kts 116°
2026-05-09 04:19 -0.73509 103.07035 33256 ft 450 kts 116°
2026-05-09 04:19 -0.74990 103.09789 33524 ft 450 kts 116°
2026-05-09 04:19 -0.76472 103.12543 33821 ft 449 kts 116°
2026-05-09 04:20 -0.77948 103.15287 34102 ft 448 kts 116°
2026-05-09 04:20 -0.79422 103.18024 34342 ft 447 kts 116°
2026-05-09 04:20 -0.80882 103.20739 34576 ft 447 kts 116°
2026-05-09 04:20 -0.82353 103.23474 34830 ft 446 kts 116°
2026-05-09 04:21 -0.85301 103.28954 34904 ft 449 kts 116°
2026-05-09 04:22 -0.90130 103.36870 34911 ft 446 kts 129°
2026-05-09 04:22 -0.94728 103.41032 34912 ft 446 kts 139°
2026-05-09 04:23 -0.99598 103.44893 34909 ft 445 kts 139°
2026-05-09 04:23 -1.04427 103.48740 34898 ft 445 kts 139°
2026-05-09 04:24 -1.09258 103.52632 34910 ft 446 kts 138°
2026-05-09 04:24 -1.14100 103.56552 34909 ft 448 kts 138°
2026-05-09 04:25 -1.18922 103.60458 34904 ft 450 kts 138°
2026-05-09 04:25 -1.23791 103.64403 34912 ft 451 kts 138°
2026-05-09 04:26 -1.28691 103.68370 34902 ft 453 kts 138°
2026-05-09 04:26 -1.33586 103.72334 34911 ft 454 kts 138°
2026-05-09 04:27 -1.38512 103.76323 34896 ft 455 kts 138°
2026-05-09 04:27 -1.43425 103.80302 34904 ft 455 kts 138°
2026-05-09 04:28 -1.48314 103.84262 34893 ft 454 kts 138°
2026-05-09 04:28 -1.53235 103.88247 34904 ft 453 kts 138°
2026-05-09 04:29 -1.58131 103.92214 34900 ft 453 kts 138°
2026-05-09 04:29 -1.63003 103.96161 34902 ft 452 kts 138°
2026-05-09 04:30 -1.67887 104.00117 34894 ft 451 kts 138°
2026-05-09 04:30 -1.72751 104.04059 34900 ft 450 kts 138°
2026-05-09 04:31 -1.77587 104.07977 34894 ft 449 kts 138°
2026-05-09 04:31 -1.82452 104.11920 34896 ft 449 kts 138°
2026-05-09 04:32 -1.87305 104.15854 34895 ft 449 kts 138°
2026-05-09 04:32 -1.92152 104.19783 34898 ft 449 kts 139°
2026-05-09 04:33 -1.97017 104.23726 34899 ft 449 kts 139°
2026-05-09 04:33 -2.01879 104.27662 34905 ft 449 kts 139°
2026-05-09 04:34 -2.06709 104.31575 34904 ft 450 kts 139°
2026-05-09 04:34 -2.11579 104.35520 34896 ft 450 kts 139°
2026-05-09 04:35 -2.16454 104.39472 34896 ft 451 kts 139°
2026-05-09 04:35 -2.21341 104.43433 34895 ft 451 kts 139°
2026-05-09 04:36 -2.26196 104.47368 34903 ft 452 kts 139°
2026-05-09 04:36 -2.31089 104.51334 34903 ft 453 kts 139°
2026-05-09 04:37 -2.35996 104.55313 34896 ft 453 kts 139°
2026-05-09 04:37 -2.40904 104.59292 34897 ft 454 kts 139°
2026-05-09 04:38 -2.45784 104.63249 34906 ft 454 kts 139°
2026-05-09 04:38 -2.50706 104.67240 34896 ft 455 kts 139°
2026-05-09 04:39 -2.55626 104.71231 34900 ft 455 kts 139°
2026-05-09 04:39 -2.60537 104.75214 34902 ft 455 kts 139°
2026-05-09 04:40 -2.65468 104.79214 34909 ft 455 kts 139°
2026-05-09 04:40 -2.70368 104.83190 34908 ft 455 kts 139°
2026-05-09 04:41 -2.75289 104.87182 34906 ft 455 kts 139°
2026-05-09 04:41 -2.80195 104.91163 34905 ft 455 kts 139°
2026-05-09 04:42 -2.85105 104.95149 34902 ft 455 kts 139°
2026-05-09 04:42 -2.90039 104.99154 34911 ft 455 kts 139°
2026-05-09 04:43 -2.94933 105.03126 34900 ft 455 kts 139°
2026-05-09 04:43 -2.99860 105.07127 34910 ft 455 kts 139°
2026-05-09 04:44 -3.04792 105.11131 34908 ft 456 kts 139°
2026-05-09 04:44 -3.09694 105.15113 34900 ft 456 kts 139°
2026-05-09 04:45 -3.14626 105.19118 34902 ft 456 kts 139°
2026-05-09 04:45 -3.19569 105.23134 34902 ft 456 kts 139°
2026-05-09 04:46 -3.24469 105.27115 34901 ft 456 kts 139°
2026-05-09 04:46 -3.29375 105.31153 34902 ft 456 kts 138°
2026-05-09 04:47 -3.34252 105.35240 34894 ft 456 kts 138°
2026-05-09 04:47 -3.39132 105.39328 34894 ft 457 kts 138°
2026-05-09 04:48 -3.44005 105.43400 34892 ft 457 kts 138°
2026-05-09 04:48 -3.48896 105.47485 34895 ft 457 kts 138°
2026-05-09 04:49 -3.53759 105.51548 34887 ft 457 kts 138°
2026-05-09 04:49 -3.58654 105.55637 34888 ft 458 kts 138°
2026-05-09 04:50 -3.62726 105.59036 34893 ft 458 kts 138°
2026-05-09 04:50 -3.68419 105.63788 34893 ft 458 kts 138°
2026-05-09 04:51 -3.72524 105.67216 34894 ft 458 kts 138°
2026-05-09 04:51 -3.77393 105.71283 34882 ft 458 kts 138°
2026-05-09 04:52 -3.82299 105.75382 34881 ft 458 kts 138°
2026-05-09 04:52 -3.87166 105.79449 34888 ft 458 kts 138°
2026-05-09 04:53 -3.92063 105.83542 34881 ft 457 kts 138°
2026-05-09 04:53 -3.96926 105.87607 34886 ft 457 kts 138°
2026-05-09 04:54 -4.01819 105.91697 34879 ft 457 kts 138°
2026-05-09 04:54 -4.06667 105.95751 34888 ft 456 kts 138°
2026-05-09 04:55 -4.11546 105.99832 34880 ft 456 kts 138°
2026-05-09 04:55 -4.16423 106.03912 34880 ft 456 kts 138°
2026-05-09 04:56 -4.21270 106.07967 34882 ft 455 kts 138°
2026-05-09 04:56 -4.26136 106.12038 34880 ft 455 kts 138°
2026-05-09 04:57 -4.31002 106.16111 34881 ft 455 kts 138°
2026-05-09 04:57 -4.35837 106.20157 34880 ft 454 kts 138°
2026-05-09 04:58 -4.40701 106.24229 34883 ft 454 kts 138°
2026-05-09 04:58 -4.45534 106.28276 34883 ft 454 kts 138°
2026-05-09 04:59 -4.50393 106.32346 34879 ft 454 kts 138°
2026-05-09 04:59 -4.55223 106.36392 34881 ft 454 kts 138°
2026-05-09 05:00 -4.60081 106.40462 34873 ft 454 kts 138°
2026-05-09 05:00 -4.64944 106.44537 34881 ft 455 kts 138°
2026-05-09 05:00 -4.67373 106.46573 34768 ft 457 kts 138°
2026-05-09 05:01 -4.69808 106.48614 34301 ft 460 kts 138°
2026-05-09 05:01 -4.72251 106.50661 33858 ft 455 kts 138°
2026-05-09 05:01 -4.74676 106.52694 33367 ft 451 kts 138°
2026-05-09 05:01 -4.77088 106.54716 32897 ft 447 kts 138°
2026-05-09 05:02 -4.79462 106.56707 32440 ft 443 kts 138°
2026-05-09 05:02 -4.81789 106.58659 32007 ft 440 kts 138°
2026-05-09 05:02 -4.84131 106.60623 31571 ft 436 kts 138°
2026-05-09 05:02 -4.86509 106.62511 31122 ft 434 kts 146°
2026-05-09 05:03 -4.89199 106.63900 30733 ft 432 kts 153°
2026-05-09 05:03 -4.91911 106.65106 30324 ft 429 kts 154°
2026-05-09 05:03 -4.94650 106.66295 29878 ft 427 kts 154°
2026-05-09 05:03 -4.97371 106.67488 29387 ft 424 kts 154°
2026-05-09 05:04 -5.00057 106.68686 28915 ft 420 kts 154°
2026-05-09 05:04 -5.02716 106.69889 28462 ft 416 kts 154°
2026-05-09 05:04 -5.05348 106.71089 28020 ft 413 kts 154°
2026-05-09 05:04 -5.07948 106.72279 27591 ft 409 kts 154°
2026-05-09 05:05 -5.10502 106.73449 27172 ft 406 kts 154°
2026-05-09 05:05 -5.13080 106.74629 26736 ft 403 kts 154°
2026-05-09 05:05 -5.15622 106.75791 26317 ft 400 kts 154°
2026-05-09 05:05 -5.18153 106.76947 25897 ft 398 kts 154°
2026-05-09 05:06 -5.20669 106.78090 25461 ft 396 kts 154°
2026-05-09 05:06 -5.23156 106.79214 25041 ft 394 kts 154°
2026-05-09 05:06 -5.25663 106.80348 24623 ft 393 kts 154°
2026-05-09 05:06 -5.28150 106.81472 24193 ft 391 kts 154°
2026-05-09 05:07 -5.30629 106.82595 23763 ft 390 kts 154°
2026-05-09 05:07 -5.33100 106.83714 23329 ft 389 kts 154°
2026-05-09 05:07 -5.35532 106.84816 22864 ft 386 kts 154°
2026-05-09 05:07 -5.37980 106.85926 22431 ft 383 kts 154°
2026-05-09 05:08 -5.40404 106.87024 22013 ft 380 kts 154°
2026-05-09 05:08 -5.42804 106.88112 21605 ft 376 kts 155°
2026-05-09 05:08 -5.45197 106.89157 21187 ft 374 kts 161°
2026-05-09 05:08 -5.47755 106.89558 20769 ft 373 kts 180°
2026-05-09 05:09 -5.50275 106.89127 20299 ft 374 kts 197°
2026-05-09 05:09 -5.52722 106.88236 19817 ft 374 kts 200°
2026-05-09 05:09 -5.55149 106.87272 19326 ft 374 kts 200°
2026-05-09 05:09 -5.57571 106.86296 18826 ft 374 kts 200°
2026-05-09 05:10 -5.59992 106.85328 18334 ft 374 kts 200°
2026-05-09 05:10 -5.62413 106.84373 17789 ft 374 kts 200°
2026-05-09 05:10 -5.64834 106.83429 17285 ft 372 kts 200°
2026-05-09 05:10 -5.67240 106.82497 16792 ft 370 kts 199°
2026-05-09 05:11 -5.69630 106.81574 16307 ft 367 kts 200°
2026-05-09 05:11 -5.71987 106.80665 15835 ft 366 kts 200°
2026-05-09 05:11 -5.74360 106.79749 15361 ft 364 kts 200°
2026-05-09 05:11 -5.76715 106.78841 14878 ft 362 kts 200°
2026-05-09 05:12 -5.79072 106.77932 14402 ft 361 kts 200°
2026-05-09 05:12 -5.81423 106.77025 13920 ft 361 kts 200°
2026-05-09 05:12 -5.83764 106.76121 13422 ft 360 kts 200°
2026-05-09 05:12 -5.85912 106.74867 12996 ft 357 kts 221°
2026-05-09 05:13 -5.87455 106.73014 12887 ft 346 kts 240°
2026-05-09 05:13 -5.88433 106.70863 12863 ft 332 kts 247°
2026-05-09 05:13 -5.89252 106.68750 12843 ft 318 kts 248°
2026-05-09 05:13 -5.90020 106.66727 12737 ft 302 kts 248°
2026-05-09 05:14 -5.90760 106.64809 12628 ft 286 kts 248°
2026-05-09 05:14 -5.91476 106.62991 12421 ft 275 kts 247°
2026-05-09 05:14 -5.92185 106.61210 12017 ft 273 kts 247°
2026-05-09 05:14 -5.92892 106.59440 11601 ft 272 kts 247°
2026-05-09 05:15 -5.93597 106.57682 11203 ft 271 kts 247°
2026-05-09 05:15 -5.94308 106.55935 10822 ft 269 kts 246°
2026-05-09 05:15 -5.95016 106.54201 10444 ft 267 kts 246°
2026-05-09 05:15 -5.95712 106.52499 10074 ft 266 kts 246°
2026-05-09 05:16 -5.96412 106.50783 9703 ft 264 kts 247°
2026-05-09 05:16 -5.97111 106.49069 9278 ft 263 kts 247°
2026-05-09 05:16 -5.97804 106.47370 8873 ft 262 kts 247°
2026-05-09 05:16 -5.98490 106.45685 8472 ft 260 kts 247°
2026-05-09 05:17 -5.99167 106.44024 8094 ft 259 kts 247°
2026-05-09 05:17 -5.99857 106.42330 7699 ft 258 kts 247°
2026-05-09 05:17 -6.00525 106.40689 7338 ft 256 kts 247°
2026-05-09 05:17 -6.01196 106.39043 6961 ft 255 kts 247°
2026-05-09 05:18 -6.01868 106.37393 6594 ft 254 kts 247°
2026-05-09 05:18 -6.02537 106.35749 6427 ft 250 kts 247°
2026-05-09 05:18 -6.03187 106.34156 6500 ft 251 kts 247°
2026-05-09 05:18 -6.04056 106.32691 6478 ft 239 kts 222°
2026-05-09 05:19 -6.05433 106.31909 6382 ft 221 kts 193°
2026-05-09 05:19 -6.06911 106.31774 6211 ft 210 kts 173°
2026-05-09 05:19 -6.08343 106.31986 5938 ft 207 kts 168°
2026-05-09 05:19 -6.09763 106.32252 5636 ft 206 kts 167°
2026-05-09 05:20 -6.11172 106.32517 5348 ft 205 kts 168°
2026-05-09 05:20 -6.12581 106.32776 5048 ft 205 kts 168°
2026-05-09 05:20 -6.13979 106.33029 4767 ft 203 kts 168°
2026-05-09 05:20 -6.15359 106.33274 4475 ft 202 kts 169°
2026-05-09 05:21 -6.16747 106.33521 4200 ft 202 kts 169°
2026-05-09 05:21 -6.18130 106.33766 3934 ft 202 kts 169°
2026-05-09 05:21 -6.19508 106.34011 3697 ft 198 kts 168°
2026-05-09 05:21 -6.20713 106.34593 3419 ft 194 kts 131°
2026-05-09 05:22 -6.21463 106.35705 3161 ft 191 kts 121°
2026-05-09 05:22 -6.22160 106.36829 3047 ft 194 kts 121°
2026-05-09 05:22 -6.22879 106.37985 2998 ft 194 kts 121°
2026-05-09 05:22 -6.23566 106.39140 2994 ft 191 kts 112°
2026-05-09 05:23 -6.23710 106.40440 3004 ft 189 kts 83°
2026-05-09 05:23 -6.23342 106.41701 2995 ft 184 kts 68°
2026-05-09 05:23 -6.22865 106.42870 2989 ft 178 kts 67°
2026-05-09 05:23 -6.22394 106.44013 2996 ft 175 kts 68°
2026-05-09 05:24 -6.21929 106.45146 2981 ft 175 kts 67°
2026-05-09 05:24 -6.21452 106.46261 2994 ft 173 kts 67°
2026-05-09 05:24 -6.21017 106.47318 3016 ft 155 kts 68°
2026-05-09 05:24 -6.20614 106.48321 2997 ft 154 kts 68°
2026-05-09 05:25 -6.20218 106.49315 2996 ft 153 kts 68°
2026-05-09 05:25 -6.19817 106.50323 2830 ft 155 kts 68°
2026-05-09 05:25 -6.19028 106.52315 2444 ft 153 kts 68°
2026-05-09 05:26 -6.18636 106.53306 2260 ft 153 kts 68°
2026-05-09 05:26 -6.18244 106.54296 2060 ft 152 kts 68°
2026-05-09 05:26 -6.17855 106.55273 1868 ft 150 kts 68°
2026-05-09 05:26 -6.17471 106.56248 1664 ft 149 kts 66°
2026-05-09 05:27 -6.17089 106.57222 1486 ft 152 kts 69°
2026-05-09 05:27 -6.16697 106.58196 1293 ft 149 kts 65°
2026-05-09 05:27 -6.16314 106.59162 1107 ft 148 kts 66°
2026-05-09 05:27 -6.15940 106.60109 936 ft 146 kts 67°
2026-05-09 05:28 -6.15564 106.61061 759 ft 147 kts 66°
2026-05-09 05:28 -6.15188 106.62021 568 ft 145 kts 65°
2026-05-09 05:28 -6.14820 106.62947 377 ft 141 kts 64°
2026-05-09 05:28 -6.14456 106.63851 200 ft 138 kts 63°
2026-05-09 05:29 -6.14107 106.64744 49 ft 135 kts 64°
2026-05-09 05:29 -6.13792 106.65523 39 ft 100 kts 68°
2026-05-09 05:29 -6.13590 106.66028 38 ft 57 kts 68°
2026-05-09 05:29 -6.13470 106.66227 40 ft 18 kts 41°
2026-05-09 05:30 -6.13399 106.66283 39 ft 8 kts 36°
2026-05-09 05:30 -6.13359 106.66306 39 ft 0 kts 17°
2026-05-09 05:30 -6.13359 106.66305 39 ft 0 kts 13°
2026-05-09 05:32 -6.13357 106.66306 39 ft 0 kts 12°
2026-05-09 05:32 -6.13352 106.66307 39 ft 1 kts 12°
2026-05-09 05:32 -6.13342 106.66309 39 ft 2 kts 12°
2026-05-09 05:32 -6.13328 106.66312 38 ft 2 kts 12°
2026-05-09 05:33 -6.13311 106.66316 38 ft 3 kts 12°
2026-05-09 05:33 -6.13291 106.66320 38 ft 3 kts 14°
2026-05-09 05:33 -6.13269 106.66325 38 ft 3 kts 10°
2026-05-09 05:33 -6.13245 106.66329 36 ft 4 kts 10°
2026-05-09 05:34 -6.13228 106.66331 38 ft 4 kts 359°
2026-05-09 05:34 -6.13209 106.66307 38 ft 5 kts 276°
2026-05-09 05:34 -6.13228 106.66273 38 ft 3 kts 204°
2026-05-09 05:34 -6.13255 106.66270 38 ft 3 kts 173°
2026-05-09 05:35 -6.13298 106.66268 38 ft 8 kts 206°
2026-05-09 05:35 -6.13319 106.66246 38 ft 6 kts 247°
2026-05-09 05:35 -6.13336 106.66172 38 ft 16 kts 249°
2026-05-09 05:35 -6.13394 106.66030 38 ft 26 kts 249°
2026-05-09 05:36 -6.13462 106.65861 35 ft 25 kts 248°
2026-05-09 05:36 -6.13525 106.65703 37 ft 24 kts 248°
2026-05-09 05:36 -6.13585 106.65554 37 ft 23 kts 248°
2026-05-09 05:36 -6.13642 106.65411 38 ft 22 kts 248°
2026-05-09 05:37 -6.13699 106.65269 38 ft 21 kts 248°
2026-05-09 05:37 -6.13753 106.65133 38 ft 21 kts 248°
2026-05-09 05:37 -6.13738 106.65053 38 ft 2 kts 343°
2026-05-09 05:37 -6.13727 106.65050 38 ft 2 kts 344°
2026-05-09 05:38 -6.13697 106.65040 38 ft 11 kts 341°
2026-05-09 05:38 -6.13575 106.64989 37 ft 27 kts 337°
2026-05-09 05:38 -6.13364 106.64906 35 ft 35 kts 340°
2026-05-09 05:38 -6.13138 106.64822 37 ft 33 kts 340°